Location: Newark
(57.7279°N, 5.6916°W)
Time: 10:54:47
(UTC+00:00)

N. Korean satellite - Pass Details

Date: 09 December 2019
Orbit: 454 x 507 km, 97.2° (Epoch: 21 January)

Event Time Altitude Azimuth Distance (km) Brightness Sun altitude
Rises 17:39:40 0° 183° (S) 2,606 10.6 -14.6°
Reaches altitude 10° 17:41:50 10° 190° (S) 1,723 9.7 -14.9°
Maximum altitude 17:45:22 41° 262° (W) 752 8.1 -15.3°
Drops below altitude 10° 17:48:54 10° 334° (NNW) 1,721 9.4 -15.8°
Sets 17:51:04 0° 342° (NNW) 2,602 10.3 -16.1°
